Airport Information

KMFR - Rogue Valley Intl Medford Airport

KMFR 251953Z 02006KT 10SM CLR 25/06 A3001 RMK AO2 SLP155 T02500061


  • General Information

  • Coordinates: N 42°22'27"/ W 122°52'24"
  • Location: N/A
  • Surveyed Elevation: 1335 MSL

Operations

Flow Name Active Runways Conditions

Green background denotes normal operations.


Common Frequencies

Callsign Frequency Position Name

More at the Document Center


Charts

Under Construction